Estación de La Cruz
Ultimos registro cada 15 minutos 73
| N° | Estación | Fecha / Hora | Temperatura | Humedad | Lluvia | Velocidad | Dirección | Radiación | Presion |
| 73 | La Cruz | 06-05-2026 18:00 | 14,3 | 94,1 | 0,2 | 0 | 230 | 0,6 | 1001,8 |
| 72 | La Cruz | 06-05-2026 17:45 | 14,4 | 94 | 0,2 | 0 | 171 | 0,6 | 1001,7 |
| 71 | La Cruz | 06-05-2026 17:30 | 14,6 | 93,8 | 0,2 | 0 | 204 | 4,4 | 1001,6 |
| 70 | La Cruz | 06-05-2026 17:15 | 14,6 | 93,5 | 0 | 0 | 198 | 6,9 | 1001,6 |
| 69 | La Cruz | 06-05-2026 17:00 | 14,8 | 93,2 | 0 | 0 | 174 | 11,9 | 1001,4 |
| 68 | La Cruz | 06-05-2026 16:45 | 15 | 92,8 | 0 | 0 | 198 | 16,9 | 1001,3 |
| 67 | La Cruz | 06-05-2026 16:30 | 15,2 | 92 | 0 | 0 | 195 | 13,1 | 1001,2 |
| 66 | La Cruz | 06-05-2026 16:15 | 16 | 92,1 | 0 | 0 | 198 | 28,1 | 1001,3 |
| 65 | La Cruz | 06-05-2026 16:00 | 16,2 | 91,7 | 0,2 | 0 | 205 | 29,4 | 1001,2 |
| 64 | La Cruz | 06-05-2026 15:45 | 16,6 | 91,1 | 0 | 0 | 177 | 25,6 | 1001,1 |
| 63 | La Cruz | 06-05-2026 15:30 | 16,7 | 90,9 | 0 | 0 | 175 | 65,6 | 1001,1 |
| 62 | La Cruz | 06-05-2026 15:15 | 16,3 | 89,9 | 0 | 0 | 175 | 63,1 | 1001,2 |
| 61 | La Cruz | 06-05-2026 15:00 | 16,8 | 89,7 | 1 | 0 | 175 | 53,1 | 1001,1 |
| 60 | La Cruz | 06-05-2026 14:45 | 16,8 | 89,2 | 0,4 | 0 | 177 | 63,1 | 1000,9 |
| 59 | La Cruz | 06-05-2026 14:30 | 17 | 89,2 | 0 | 0 | 133 | 118,1 | 1000,7 |
| 58 | La Cruz | 06-05-2026 14:15 | 16,9 | 89,1 | 0 | 0 | 80 | 189,4 | 1000,6 |
| 57 | La Cruz | 06-05-2026 14:00 | 16,6 | 89 | 0 | 0 | 83 | 101,9 | 1000,9 |
| 56 | La Cruz | 06-05-2026 13:45 | 16,6 | 90 | 0,2 | 0 | 83 | 155,6 | 1000,9 |
| 55 | La Cruz | 06-05-2026 13:30 | 16,4 | 89,5 | 0 | 0 | 51 | 121,9 | 1001,2 |
| 54 | La Cruz | 06-05-2026 13:15 | 16,4 | 89,7 | 0,2 | 0 | 352 | 151,9 | 1001,4 |
| 53 | La Cruz | 06-05-2026 13:00 | 16,4 | 89,6 | 0,2 | 0 | 41 | 159,4 | 1001,2 |
| 52 | La Cruz | 06-05-2026 12:45 | 16,6 | 88,3 | 0,2 | 0 | 49 | 201,9 | 1001,2 |
| 51 | La Cruz | 06-05-2026 12:30 | 15,9 | 87,1 | 0 | 0 | 34 | 120,6 | 1001,1 |
| 50 | La Cruz | 06-05-2026 12:15 | 16,2 | 82,8 | 0 | 0 | 1 | 53,1 | 1000,9 |
| 49 | La Cruz | 06-05-2026 12:00 | 16,6 | 78,1 | 0 | 0 | 135 | 41,9 | 1001,1 |
| 48 | La Cruz | 06-05-2026 11:45 | 15,9 | 80,6 | 0 | 0 | 150 | 34,4 | 1000,9 |
| 47 | La Cruz | 06-05-2026 11:30 | 15,3 | 79 | 0 | 0 | 208 | 85,6 | 1000,8 |
| 46 | La Cruz | 06-05-2026 11:15 | 14,9 | 78 | 0 | 0 | 219 | 59,4 | 1000,8 |
| 45 | La Cruz | 06-05-2026 11:00 | 14,8 | 77,8 | 0 | 0 | 173 | 49,4 | 1000,2 |
| 44 | La Cruz | 06-05-2026 10:45 | 14,9 | 76,8 | 0 | 0 | 180 | 50,6 | 999,9 |
| 43 | La Cruz | 06-05-2026 10:30 | 15,5 | 76,4 | 0 | 0 | 230 | 90,6 | 999,8 |
| 42 | La Cruz | 06-05-2026 10:15 | 15,2 | 76,7 | 0 | 0 | 230 | 104,4 | 999,6 |
| 41 | La Cruz | 06-05-2026 10:00 | 14,6 | 79,1 | 0 | 0 | 223 | 140,6 | 999,4 |
| 40 | La Cruz | 06-05-2026 09:45 | 14,1 | 79 | 0 | 0 | 254 | 96,9 | 999,4 |
| 39 | La Cruz | 06-05-2026 09:30 | 15,2 | 78,4 | 0 | 0 | 307 | 65,6 | 999,6 |
| 38 | La Cruz | 06-05-2026 09:15 | 15,6 | 78,4 | 0 | 0 | 282 | 80,6 | 999,7 |
| 37 | La Cruz | 06-05-2026 09:00 | 13,7 | 91,2 | 0 | 0 | 223 | 169,4 | 999,4 |
| 36 | La Cruz | 06-05-2026 08:45 | 11,8 | 94,7 | 0 | 0 | 223 | 133,1 | 999,2 |
| 35 | La Cruz | 06-05-2026 08:30 | 11,1 | 95,5 | 0 | 0 | 288 | 96,9 | 999,3 |
| 34 | La Cruz | 06-05-2026 08:15 | 10,1 | 95,7 | 0 | 0 | 320 | 31,9 | 999,2 |
| 33 | La Cruz | 06-05-2026 08:00 | 8,9 | 95,9 | 0 | 0 | 29 | 15,6 | 999,1 |
| 32 | La Cruz | 06-05-2026 07:45 | 7,1 | 94,8 | 0 | 0 | 37 | 5,6 | 998,8 |
| 31 | La Cruz | 06-05-2026 07:30 | 7,7 | 95 | 0 | 0 | 31 | 1,9 | 999 |
| 30 | La Cruz | 06-05-2026 07:15 | 8,3 | 95,2 | 0 | 0 | 27 | 0,6 | 999,1 |
| 29 | La Cruz | 06-05-2026 07:00 | 8 | 95,1 | 0 | 0 | 27 | 0,6 | 998,8 |
| 28 | La Cruz | 06-05-2026 06:45 | 8,2 | 94,9 | 0 | 0 | 27 | 0,6 | 998,8 |
| 27 | La Cruz | 06-05-2026 06:30 | 8,7 | 95,1 | 0 | 0 | 27 | 0,6 | 998,6 |
| 26 | La Cruz | 06-05-2026 06:15 | 8,5 | 95,1 | 0 | 0 | 27 | 0,6 | 998,4 |
| 25 | La Cruz | 06-05-2026 06:00 | 8,2 | 95,3 | 0 | 0 | 60 | 0,6 | 998,1 |
| 24 | La Cruz | 06-05-2026 05:45 | 6,9 | 94,4 | 0 | 0 | 70 | 0,6 | 998 |
| 23 | La Cruz | 06-05-2026 05:30 | 7,6 | 94,4 | 0 | 0 | 70 | 0,6 | 998,1 |
| 22 | La Cruz | 06-05-2026 05:15 | 7,8 | 94,4 | 0 | 0 | 69 | 0,6 | 998,1 |
| 21 | La Cruz | 06-05-2026 05:00 | 7,6 | 94,1 | 0 | 0 | 69 | 0,6 | 997,8 |
| 20 | La Cruz | 06-05-2026 04:45 | 8,4 | 94,2 | 0 | 0 | 69 | 0,6 | 997,7 |
| 19 | La Cruz | 06-05-2026 04:30 | 9 | 94,4 | 0 | 0 | 69 | 0,6 | 997,6 |
| 18 | La Cruz | 06-05-2026 04:15 | 8,4 | 94,3 | 0 | 0 | 69 | 0,6 | 997,5 |
| 17 | La Cruz | 06-05-2026 04:00 | 8,3 | 93,8 | 0 | 0 | 69 | 0,6 | 997,6 |
| 16 | La Cruz | 06-05-2026 03:45 | 8,9 | 93,6 | 0 | 0 | 69 | 0,6 | 997,4 |
| 15 | La Cruz | 06-05-2026 03:30 | 9,7 | 93,8 | 0 | 0 | 66 | 0,6 | 997,5 |
| 14 | La Cruz | 06-05-2026 03:15 | 10,5 | 94,1 | 0 | 0 | 1 | 0,6 | 997,3 |
| 13 | La Cruz | 06-05-2026 03:00 | 10,4 | 94 | 0 | 0 | 42 | 0,6 | 997 |
| 12 | La Cruz | 06-05-2026 02:45 | 9,8 | 93,4 | 0 | 0 | 51 | 0,6 | 996,9 |
| 11 | La Cruz | 06-05-2026 02:30 | 10,5 | 93,4 | 0 | 0 | 51 | 0,6 | 996,7 |
| 10 | La Cruz | 06-05-2026 02:15 | 10,6 | 93,2 | 0 | 0 | 188 | 0,6 | 997,2 |
| 9 | La Cruz | 06-05-2026 02:00 | 10,9 | 93,2 | 0 | 0 | 247 | 0,6 | 997,2 |
| 8 | La Cruz | 06-05-2026 01:45 | 10,7 | 93,4 | 0 | 0 | 243 | 0,6 | 997,3 |
| 7 | La Cruz | 06-05-2026 01:30 | 10 | 92,2 | 0 | 0 | 246 | 0,6 | 997,5 |
| 6 | La Cruz | 06-05-2026 01:15 | 10,2 | 91,6 | 0 | 0 | 246 | 0,6 | 997,6 |
| 5 | La Cruz | 06-05-2026 01:00 | 10,9 | 91,6 | 0 | 0 | 246 | 0,6 | 997,7 |
| 4 | La Cruz | 06-05-2026 00:45 | 11,3 | 91,6 | 0 | 0 | 246 | 0,6 | 997,9 |
| 3 | La Cruz | 06-05-2026 00:30 | 11,4 | 91,4 | 0 | 0 | 246 | 0,6 | 998 |
| 2 | La Cruz | 06-05-2026 00:15 | 11,8 | 91,7 | 0 | 0 | 246 | 0,6 | 998 |
| 1 | La Cruz | 06-05-2026 00:00 | 11,7 | 91,7 | 0 | 0 | 246 | 0,6 | 998,2 |